Flag for Philippines Weather past 2 weeks in Mabalacat, Philippines

Now
75 °F

Partly cloudy.


Feels Like: 73 °F
Forecast: 75 / 87 °F
Wind: 2 mph from Southeast

Location: Clarkfield Pampanga International Airport

Current Time: Aug 5, 2015 at 12:11:06 AM

Latest Report: Aug 4, 2015 at 11:00 PM


Visibility: 6 mi

Pressure: 29.80 "Hg

Humidity: 100%

Dew point: 75 °F

Location of MabalacatLocation

Historic Weather in Mabalacat — Graph

°F

Mabalacat temperature yesterday

Maximum temperature yesterday: 91 °F (at 2:00 PM)
Minimum temperature yesterday: 75 °F (at 8:00 PM)
Average temperature yesterday: 83 °F

Past Weeks' High & Low Weather Summary

 TemperatureHumidityPressure
High93 °F (Aug 3, 3:00 PM)100% (Jul 22, 6:00 AM)30.01 "Hg (Jul 22, 6:00 AM)
Low72 °F (Jul 27, 5:00 AM)41% (Jul 21, 4:00 PM)29.68 "Hg (Aug 4, 3:00 PM)
Average81 °F80%29.88 "Hg
* Reported Jul 20 10:00 PM — Aug 4 10:00 PM, Mabalacat, Weather by CustomWeather, © 2015

Note: Actual official high and low records may vary slightly from our data, if they occured in-between our weather recording intervals... More about our weather records

Advertising

Mabalacat weather history for previous 24 hours

 ConditionsComfort  
Time TempWeatherWind HumidityBarometerVisibility
10:00 PM
Tue, Aug 4
75 °FLight rain. Passing clouds.2 mph100%29.80 "Hg5 mi
9:00 PM77 °FLight rain. Partly cloudy.5 mph100%29.77 "Hg5 mi
8:00 PM75 °FThunderstorms. Partly cloudy.6 mph100%29.77 "Hg5 mi
7:00 PM79 °FLots of rain. Partly cloudy.9 mph94%29.74 "Hg5 mi
6:00 PM88 °FThunderstorms. Broken clouds.9 mph66%29.68 "Hg5 mi
5:00 PM90 °FBroken clouds.8 mph63%29.68 "Hg5 mi
4:00 PM91 °FBroken clouds.6 mph59%29.68 "Hg5 mi
3:00 PM91 °FBroken clouds.5 mph59%29.68 "Hg6 mi
2:00 PM91 °FBroken clouds.3 mph56%29.71 "Hg6 mi
1:00 PM90 °FBroken clouds.6 mph67%29.77 "Hg5 mi
12:00 PM90 °FBroken clouds.2 mph63%29.80 "Hg5 mi
11:00 AM88 °FBroken clouds.2 mph66%29.80 "Hg5 mi
10:00 AM86 °FBroken clouds.2 mph75%29.83 "Hg5 mi
9:00 AM84 °FScattered clouds.3 mph79%29.86 "Hg5 mi
8:00 AM82 °FScattered clouds.2 mph89%29.83 "Hg5 mi
7:00 AM81 °FPartly sunny.3 mph100%29.80 "Hg5 mi
6:00 AM79 °FPartly sunny.3 mph94%29.80 "HgN/A
5:00 AM79 °FPassing clouds.3 mph94%29.80 "HgN/A
4:00 AM79 °FPassing clouds.3 mph94%29.80 "HgN/A
3:00 AM79 °FPassing clouds.3 mph94%29.80 "HgN/A
2:00 AM79 °FPartly cloudy.2 mph100%29.80 "HgN/A
1:00 AM81 °FPassing clouds.2 mph94%29.83 "HgN/A
12:00 AM81 °FPassing clouds.2 mph94%29.83 "HgN/A
Weather by CustomWeather, © 2015

See weather overviewHow to use our weather pages